Regional Weather Roundup
Issued by NWS Jackson, KY

Home | Current Version | Previous Version | Graphics & Text | Print | Product List | Glossary On
Versions: 1 2 3 4 5 6 7 8 9 10 11 12 13 14 15 16 17 18 19 20 21 22 23 24 25 26 27 28 29 30 31 32 33 34 35 36 37 38 39 40 41 42 43 44 45 46 47 48 49 50
000
ASUS43 KJKL 040210
RWRJKL

EAST KENTUCKY HOURLY WEATHER ROUNDUP
NATIONAL WEATHER SERVICE JACKSON KY
1000 PM EDT MON AUG 03 2015

NOTE: "FAIR" INDICATES FEW OR NO CLOUDS BELOW 12,000 FEET WITH
NO SIGNIFICANT WEATHER AND/OR OBSTRUCTIONS TO VISIBILITY.

* THESE REPORTS ARE NOT UNDER NWS QUALITY CONTROL AND MAY NOT
  REPORT WEATHER SUCH AS PRECIPITATION AND FOG.

KYZ079-080-083-085-087-088-110-112-115-119-120-040300
...EASTERN KENTUCKY...

CITY           SKY/WX    TMP DP  RH WIND       PRES   REMARKS
JACKSON        MOCLDY    79  69  71 CALM      29.94R
LONDON         PTCLDY    80  67  64 S5        29.95R
SOMERSET*      CLEAR     79  68  69 SW3       29.93R
MONTICELLO*    CLEAR     74  72  93 CALM      29.95S
WILLIAMSBURG*  CLEAR     77  72  83 CALM      29.95
MIDDLESBORO*   CLEAR     74  70  86 CALM      29.97R
HAZARD APT*    CLEAR     79  68  69 CALM      29.95R
BLACK MTN*       N/A     68  61  77 S7          N/A
PIKEVILLE APT* CLEAR     79  66  65 CALM      29.96R
BIG SANDY*     CLOUDY    81  68  64 S5        29.93R
MOREHEAD APT*  RAIN      66  63  88 VRB7      29.99F
$$

KYZ035-036-041-042-044-050-067-078-099-040300
...CENTRAL KENTUCKY...

CITY           SKY/WX    TMP DP  RH WIND       PRES   REMARKS
MT STERLING*   LGT RAIN  68  64  88 S8G20     29.97R
FLEMING/MASON* DRIZZLE  N/A N/A N/A S10G16    29.93R
DANVILLE*      PTCLDY    77  70  78 CALM      29.92R
RICHMOND*      CLOUDY    79  70  73 S3        29.91R
LEXINGTON      PTCLDY    80  70  71 SW7       29.90R
FRANKFORT      CLEAR     81  68  64 W3        29.88R
$$

KYZ091>093-OHZ055-061-077-WVZ005-015-034-035-042-040300
...SOUTHERN OHIO/WEST VIRGINIA...

CITY           SKY/WX    TMP DP  RH WIND       PRES   REMARKS
COVINGTON      MOCLDY    69  66  90 S3        29.89R
COLUMBUS       PTCLDY    74  62  66 W9        29.84R
DAYTON         PTCLDY    68  65  90 SW8       29.89R
WILMINGTON     PTCLDY    69  61  75 W7        29.88R
HUNTINGTON     TSTM      74  73  97 VRB6      29.90R FOG
CHARLESTON     CLOUDY    77  67  71 CALM      29.89R
PINEVILLE*     PTCLDY    69  68  98 MISG      30.03R
BECKLEY        PTCLDY    71  61  70 S6        30.00R
BLUEFIELD      CLEAR     74  59  59 SW6       30.04S
$$

VAZ002-007-008-TNZ017-027-036-066-071-040300
...SOUTHWEST VIRGINIA/EAST TENNESSEE...

CITY           SKY/WX    TMP DP  RH WIND       PRES   REMARKS
WISE*          CLEAR     72  57  60 S7        30.04S
ABINGDON*      CLEAR     71  61  70 CALM      30.02R
BRISTOL        PTCLDY    72  60  66 CALM      29.98S
KNOXVILLE      CLEAR     80  64  58 SE3       29.94S
OAK RIDGE      CLEAR     80  68  66 CALM      29.96S
CROSSVILLE     CLEAR     74  68  81 CALM      30.01S
NASHVILLE      PTCLDY    85  68  56 SW3       29.93R
$$

...KEY TO REMARKS...
VSB - VISIBILITY IN MILES
WCI - WIND CHILL INDEX
HX  - HEAT INDEX

$$


USA.gov is the U.S. government's official web portal to all federal, state and local government web resources and services.